www.pogodaiklimat.ru
ПОГОДА в Чарли
Время
и дата
07:55 05.06
08:55 05.06
09:55 05.06
10:55 05.06
11:55 05.06
12:55 05.06
13:55 05.06
14:55 05.06
15:55 05.06
16:55 05.06
17:55 05.06
18:55 05.06
19:55 05.06
20:55 05.06
21:55 05.06
22:55 05.06
23:55 05.06
00:55 06.06
01:55 06.06
02:55 06.06
03:55 06.06
04:55 06.06
05:55 06.06
06:55 06.06
07:55 06.06
08:55 06.06
09:55 06.06
10:55 06.06
11:55 06.06
12:55 06.06
13:55 06.06
14:55 06.06
15:55 06.06
16:55 06.06
17:55 06.06
18:55 06.06
19:55 06.06
20:55 06.06
21:55 06.06
22:55 06.06
23:55 06.06
00:55 07.06
01:55 07.06
02:55 07.06
03:55 07.06
04:55 07.06
05:55 07.06
06:55 07.06
Ветер
(напр.,м/с)
Видим. Явления Облачность Т
(С)
Тd
(С)
f
(%)
Тe
(С)
Тes
(С)
Комфортность P
(гПа)
Po
(гПа)
Тmin
(С)
Tmax
(С)
R
(мм)
R24
(мм)
S
(см)
ЮВ 5
{7}
16 км ясно +19.2 +12.5 65 +20 +23 1019.3 867.2
Ю 8
{11}
16 км ясно +20.5 +11.9 58 +22 +24 комфорт 1018.6 867.0
Ю 9
{11}
16 км 2/2 1110 м +21.3 +11.3 53 +23 +24 комфорт 1018.6 867.0
Ю 7
{10}
16 км 2/2 1290 м +22.0 +11.1 50 +24 +28 комфорт 1018.3 866.7 +10.5 +22.0
Ю 9
{11}
16 км 2/2 1350 м +22.8 +10.2 45 +25 +26 комфорт 1017.9 866.4
ЮВ 6
{10}
16 км 2/2 1500 м +22.7 +9.8 44 +24 +31 комфорт 1017.6 866.1
Ю 7
{10}
16 км 2/2 1650 м +23.5 +8.7 39 +24 +28 комфорт 1016.9 865.5
Ю 7
{11}
16 км 2/2 1800 м +24.0 +7.2 34 +24 +28 комфорт 1016.2 864.9
ЮВ 7
{10}
16 км ясно +23.1 +7.6 37 +24 +27 комфорт 1016.5 864.9
ЮВ 7 16 км 2/2 1800 м +23.2 +8.8 40 +25 +26 комфорт 1016.2 864.7 +21.9 +24.3
ЮВ 7
{10}
16 км ясно +22.1 +9.3 44 +24 +25 комфорт 1016.2 864.7
ЮВ 6 16 км ясно +19.6 +10.6 56 +20 +21 1016.2 864.7
Ю 7 16 км ясно +17.4 +11.0 66 +16 +16 1016.2 864.9
Ю 7 16 км ясно +16.4 +11.1 71 +15 +15 1016.2 864.9
Ю 6 16 км ясно +16.4 +10.9 70 +15 +15 1016.2 865.2
Ю 7 16 км ясно +16.1 +10.8 71 +15 +15 1015.2 864.4 +16.1 +23.2
Ю 7 16 км ясно +15.3 +11.3 77 +14 +14 1014.8 864.1
Ю 8 16 км ясно +15.0 +11.0 77 +13 +13 1014.5 863.8
ЮЗ 6 16 км ясно +16.0 +10.7 71 +15 +15 1014.1 863.8
В 4 16 км ясно +13.6 +10.4 81 +12 +12 1014.5 863.8
ЮВ 6 16 км ясно +13.8 +9.6 76 +12 +12 1014.5 863.8
ЮВ 5 16 км ясно +12.9 +10.3 84 +11 +11 1014.8 863.8 +11.7 +16.5
ЮВ 4 16 км ясно +14.7 +10.7 77 +14 +14 1014.8 864.1
Ю 2 16 км ясно +17.7 +11.9 69 +18 +20 1014.8 864.1
Ю 5 16 км ясно +19.7 +12.0 61 +21 +23 комфорт 1014.5 863.8
Ю 8 16 км ясно +21.5 +11.8 54 +24 +25 комфорт 1014.1 863.5
Ю 7
{9}
16 км ясно +22.0 +10.5 48 +24 +27 комфорт 1013.8 863.2
Ю 7
{10}
16 км ясно +23.2 +10.3 44 +25 +30 комфорт 1013.1 862.9 +12.9 +23.2
Ю 8
{10}
16 км ясно +24.0 +10.6 43 +25 +29 комфорт 1012.4 862.4
Ю 7
{10}
16 км ясно +24.9 +10.7 41 +26 +32 жарко 1012.1 862.1
ЮВ 8 16 км 2/2 1800 м +25.2 +9.9 38 +26 +29 жарко 1011.7 861.8
Ю 8 16 км ясно +25.5 +9.3 36 +26 +29 жарко 1011.0 861.2
Ю 9 16 км ясно +25.5 +9.3 36 +26 +27 жарко 1010.7 860.9
Ю 7 16 км ясно +24.6 +9.3 38 +25 +27 комфорт 1010.3 860.4 +23.1 +25.8
Ю 6 16 км ясно +23.9 +10.2 42 +25 +27 комфорт 1010.7 860.6
ЮВ 6 16 км 5/5 1950 м +21.4 +11.4 53 +23 +24 комфорт 1011.0 860.9
ЮВ 7 16 км ясно +19.9 +10.6 55 +21 +21 комфорт 1010.7 860.9
ЮВ 8 16 км ясно +19.1 +10.4 57 +19 +19 1010.7 860.9
ЮВ 8 16 км ясно +18.1 +10.5 61 +17 +17 1011.0 861.2
ЮВ 8 16 км ясно +16.6 +10.4 67 +15 +15 1010.3 860.6 +16.5 +24.8
Ю 9 16 км ясно +16.8 +10.9 68 +15 +15 1010.1 860.6
Ю 9 16 км ясно +16.6 +11.3 71 +15 +15 1010.5 860.9
Ю 7 16 км ясно +16.7 +11.2 70 +15 +15 1010.5 860.9
Ю 6 16 км ясно +15.6 +11.4 76 +14 +14 1010.5 860.9
Ю 4 16 км ясно +15.3 +11.3 77 +14 +14 1011.0 861.2
штиль 0 16 км ясно +15.3 +11.1 76 +15 +15 1011.4 861.5 +14.3 +17.3
СЗ 2 16 км ясно +15.9 +12.1 78 +16 +16 1011.7 861.8
С 2 16 км ясно +18.2 +12.4 69 +19 +21 1011.4 861.5
Местоположение метеостанции Charlie: широта 41.5833 долгота -103.5667 высота над уровнем моря 1370 м.
В архиве по умолчанию представлена погода в Чарли за последние 1-2 суток. Обновление информации о фактической погоде в базе происходит ежечасно! Архивные данные за месяц целиком и за предыдущие месяцы Вы можете получить, выбрав интересующий диапазон дат из раскрывающегося списка и нажав кнопку "Ввод!".
Внимание! Архив погоды МЕТАР в базе сайта по станциям, не включенным в климатический монитор, хранится не более 60 дней. Нет смысла пытаться выбрать более раннюю дату.
*Определитесь, кто Вы:
Внимание! Время в таблицах - местное (без учета летнего времени). Для получения всемирного времени необходимо вычесть поправку, которая равна -7 ч.
Смотрите также архив погоды в соседних городах и на ближайших метеорологических станциях:
Партнеры нашего сайта:      
Пояснения к столбцам:
  • Ветер - указаны скорость ветра в м/с - средняя за 10 мин, порывы в срок и между сроками (в фигурных скобках) и направление, откуда дует ветер: С - северный,
  • СВ - северо-восточный, В - восточный, ЮВ - юго-восточный, Ю - южный, ЮЗ - юго-западный, З - западный, СЗ - северо-западный.
  • Видимость - горизонтальная дальность видимости в метрах или километрах. При видимости от 1 до 10 км при отсутствии осадков обычно наблюдается дымка, при ухудшении видимости до 1 км и менее - туман. В сухую погоду видимость может ухудшаться дымом, пылью или мглою.
  • Явления - указаны атмосферные явления, наблюдавшиеся в срок или в последний час перед сроком; фигурными скобками обозначены явления, наблюдавшиеся между сроками (за 1-3 часа до срока); квадратными скобками обозначены град или гололедные отложения с указанием их диаметра в мм.
  • Облачность - указаны через наклонную черту общая и нижняя облачность в баллах и высота нижней границы облаков в метрах; квадратными скобками обозначены формы облаков: Ci - перистые, Cs - перисто-слоистые, Cc - перисто-кучевые, Ac - высококучевые, As - высокослоистые, Sc - слоисто-кучевые, Ns - слоисто-дождевые, Cu - кучевые, Cb - кучево-дождевые. Подробнее классификацию облаков см. в Атласе облаков (PDF).
  • T - Температура воздуха - температура, измеренная на высоте 2 м над землей.
  • Td - Температура точки росы - температура, при понижении до которой содержащийся в воздухе водяной пар достигнет насыщения.
  • f - Относительная влажность воздуха - влажноcть воздуха, измеренная на высоте 2 м над землей.
  • Te - Эффективная температура - температура, которую ощущает одетый по сезону человек в тени. Характеристика душности погоды. При расчете учитывается влияние влажности воздуха и скорости ветра на теплоощущения человека.
  • Tes - Эффективная температура на солнце - температура, которую ощущает человек, с поправкой на солнечный нагрев. Характеристика знойности погоды. Зависит от высоты солнца над горизонтом, облачности и скорости ветра. Ночью, в пасмурную погоду, а также при ветре 12 м/с и более поправка равна нулю.
  • P - Атмосферное давление - приведенное к уровню моря атмосферное давление.
  • Po - Атмосферное давление - измеренное на уровне метеостанции атмосферное давление.
  • Tmin - Минимальная температура - минимум температуры воздуха на высоте 2 м над землей.
  • Tmax - Максимальная температура - максимум температуры воздуха на высоте 2 м над землей.
  • R - Количество осадков - Количество выпавших осадков за период времени, мм. При наведении курсора мыши на число - период времени, за который выпало указанное количество осадков.
  • R24 - Количество осадков - Количество выпавших осадков за 24 часа, мм.
  • S - Снежный покров - Высота снежного покрова, см. При наведении курсора мыши на число - состояние снежного покрова и степень покрытия местности в баллах.